Newark, NJ

3:46 AM EDT on October 24, 2017 (GMT -0400)
Newark International

Weather History for KEWR - October, 2011

Change the Weather History Date:

Saturday, October 8, 2011

  Actual Average Record
Temperature  
Mean Temperature 66 °F 59 °F  
Max Temperature 81 °F 68 °F 89 °F (2007)
Min Temperature 50 °F 51 °F 32 °F (1935)
Degree Days  
Heating Degree Days 0 7  
Month to date heating degree days 43 44  
Since 1 July heating degree days 62 89  
Cooling Degree Days 1 1  
Month to date cooling degree days 1 9  
Year to date cooling degree days 1564 1183  
Growing Degree Days 14 (Base 50)    
Moisture  
Dew Point 48 °F    
Average Humidity 59    
Maximum Humidity 83    
Minimum Humidity 35    
Precipitation  
Precipitation 0.00 in 0.12 in 4.08 in (2005)
Month to date precipitation 0.84 0.95  
Year to date precipitation 56.91 36.14  
Snow  
Snow 0.00 in 0.00 in 0.00 in (2002)
Month to date snowfall 0.0 0.0  
Since 1 July snowfall T 0.0  
Snow Depth 0.00 in    
Sea Level Pressure  
Sea Level Pressure 30.45 in    
Wind  
Wind Speed 6 mph (SW)    
Max Wind Speed 12 mph    
Max Gust Speed 17 mph    
Visibility 10 miles    
Events      
T = Trace of Precipitation, MM = Missing Value Source: NWS Daily Summary

Daily Weather History Graph

Daily Weather History Graph

Search for Another Location

Airport or City:

Trip Planner

Search our weather history database for the weather conditions in past years. The results will help you decide how hot, cold, wet, or windy it might be!

Date:

Astronomy

Oct. 08, 2011 Rise Set
Actual Time 7:00 AM EDT 6:27 PM EDT
Civil Twilight 6:32 AM EDT 6:55 PM EDT
Nautical Twilight 6:01 AM EDT 7:26 PM EDT
Astronomical Twilight 5:29 AM EDT 7:58 PM EDT
Moon 4:37 PM EDT (10/8) 3:44 AM EDT (10/8)
Length of Visible Light 12h 22m
Length of Day
11h 27m
Waxing Gibbous, 90% of the Moon is Illuminated
Oct 8
Waxing Gibbous
Oct 11
Full
Oct 19
Last Quarter
Oct 26
New
Nov 2
First Quarter

Hourly Weather History & Observations

Time (EDT) Temp. Dew Point Humidity Pressure Visibility Wind Dir Wind Speed Gust Speed Precip Events Conditions
12:51 AM 55.0 °F 43.0 °F 64% 30.48 in 10.0 mi SW 6.9 mph - N/A   Clear
1:51 AM 55.4 °F 44.6 °F 67% 30.48 in 10.0 mi WSW 6.9 mph - N/A   Clear
2:51 AM 53.6 °F 44.6 °F 72% 30.47 in 10.0 mi SW 6.9 mph - N/A   Clear
3:51 AM 50.0 °F 44.1 °F 80% 30.47 in 10.0 mi SW 4.6 mph - N/A   Clear
4:51 AM 50.0 °F 45.0 °F 83% 30.47 in 10.0 mi SSW 4.6 mph - N/A   Clear
5:51 AM 51.1 °F 46.0 °F 83% 30.48 in 10.0 mi SSW 6.9 mph - N/A   Clear
6:51 AM 50.0 °F 45.0 °F 83% 30.48 in 10.0 mi SW 4.6 mph - N/A   Clear
7:51 AM 52.0 °F 46.9 °F 83% 30.49 in 10.0 mi SSW 3.5 mph - N/A   Clear
8:51 AM 57.0 °F 46.0 °F 67% 30.50 in 10.0 mi WSW 4.6 mph - N/A   Clear
9:51 AM 63.0 °F 45.0 °F 52% 30.50 in 10.0 mi Calm Calm - N/A   Clear
10:51 AM 69.1 °F 45.0 °F 42% 30.49 in 10.0 mi SW 4.6 mph - N/A   Clear
11:51 AM 73.0 °F 46.0 °F 38% 30.48 in 10.0 mi WSW 5.8 mph - N/A   Clear
12:51 PM 77.0 °F 48.0 °F 36% 30.45 in 10.0 mi West 6.9 mph - N/A   Clear
1:51 PM 79.0 °F 48.9 °F 35% 30.43 in 10.0 mi West 4.6 mph - N/A   Clear
2:51 PM 79.0 °F 50.0 °F 36% 30.41 in 10.0 mi SW 5.8 mph - N/A   Clear
3:51 PM 79.0 °F 51.1 °F 38% 30.40 in 10.0 mi SW 5.8 mph - N/A   Clear
4:51 PM 79.0 °F 51.1 °F 38% 30.39 in 10.0 mi WSW 10.4 mph - N/A   Clear
5:51 PM 78.1 °F 50.0 °F 37% 30.39 in 10.0 mi West 8.1 mph - N/A   Clear
6:51 PM 75.9 °F 50.0 °F 40% 30.40 in 10.0 mi WSW 8.1 mph - N/A   Clear
7:51 PM 73.0 °F 50.0 °F 44% 30.41 in 10.0 mi WSW 5.8 mph - N/A   Clear
8:51 PM 70.0 °F 51.1 °F 51% 30.42 in 10.0 mi SW 5.8 mph - N/A   Clear
9:51 PM 66.0 °F 51.1 °F 59% 30.42 in 10.0 mi WSW 6.9 mph - N/A   Clear
10:51 PM 61.0 °F 52.0 °F 72% 30.42 in 10.0 mi SW 5.8 mph - N/A   Clear
11:51 PM 61.0 °F 52.0 °F 72% 30.41 in 10.0 mi SSW 4.6 mph - N/A   Clear